Socorro, NM

2:25 AM MDT on October 22, 2017 (GMT -0600)
Socorro Municipal

Weather History for KONM - December, 2013

Change the Weather History Date:

Wednesday, December 11, 2013

  Actual Average Record
Temperature  
Mean Temperature 32 °F -  
Max Temperature 44 °F 53 °F 65 °F (2014)
Min Temperature 19 °F 22 °F 19 °F (2012)
Degree Days  
Heating Degree Days 34    
Moisture  
Dew Point 10 °F    
Average Humidity 47    
Maximum Humidity 73    
Minimum Humidity 24    
Precipitation  
Precipitation 0.03 in - - ()
Sea Level Pressure  
Sea Level Pressure 30.39 in    
Wind  
Wind Speed 9 mph (NNW)    
Max Wind Speed 15 mph    
Max Gust Speed 22 mph    
Visibility 10 miles    
Events      
Averages and records for this station are not official NWS values.
T = Trace of Precipitation, MM = Missing Value Source: NWS Daily Summary

Daily Weather History Graph

Daily Weather History Graph

Search for Another Location

Airport or City:

Trip Planner

Search our weather history database for the weather conditions in past years. The results will help you decide how hot, cold, wet, or windy it might be!

Date:

Astronomy

Dec. 11, 2013 Rise Set
Actual Time 7:03 AM MST 4:58 PM MST
Civil Twilight 6:35 AM MST 5:26 PM MST
Nautical Twilight 6:04 AM MST 5:57 PM MST
Astronomical Twilight 5:33 AM MST 6:28 PM MST
Moon 1:23 PM MST (12/11) 1:39 AM MST (12/11)
Length of Visible Light 10h 51m
Length of Day
9h 55m
Waxing Gibbous, 72% of the Moon is Illuminated
Dec 11
Waxing Gibbous
Dec 17
Full
Dec 25
Last Quarter
Jan 1
New
Jan 7
First Quarter

Hourly Weather History & Observations

Time (MST) Temp. Windchill Dew Point Humidity Pressure Visibility Wind Dir Wind Speed Gust Speed Precip Events Conditions
12:15 AM 25.3 °F 16.0 °F 6.6 °F 45% 30.28 in 10.0 mi NW 9.2 mph - N/A   Clear
12:35 AM 25.3 °F 16.7 °F 7.2 °F 46% 30.28 in 10.0 mi WNW 8.1 mph - N/A   Clear
12:55 AM 24.8 °F 14.6 °F 7.7 °F 48% 30.28 in 10.0 mi NW 10.4 mph - N/A   Clear
1:15 AM 23.9 °F 15.0 °F 10.2 °F 56% 30.28 in 10.0 mi NW 8.1 mph - N/A   Clear
1:35 AM 22.8 °F 12.9 °F 11.8 °F 63% 30.28 in 10.0 mi NNW 9.2 mph - N/A   Clear
1:55 AM 23.7 °F 12.6 °F 10.4 °F 57% 30.28 in 10.0 mi NNW 11.5 mph - N/A   Clear
2:15 AM 23.7 °F 14.0 °F 12.0 °F 61% 30.28 in 10.0 mi NNW 9.2 mph 16.1 mph N/A   Clear
2:35 AM 22.6 °F 12.6 °F 12.2 °F 64% 30.30 in 10.0 mi North 9.2 mph - N/A   Clear
2:55 AM 22.1 °F 13.7 °F 12.2 °F 66% 30.30 in 10.0 mi NNW 6.9 mph - N/A   Clear
3:15 AM 21.6 °F 13.0 °F 11.7 °F 66% 30.31 in 10.0 mi NW 6.9 mph - N/A   Clear
3:35 AM 21.6 °F 12.1 °F 11.1 °F 64% 30.31 in 10.0 mi NW 8.1 mph - N/A   Clear
3:55 AM 21.6 °F 13.0 °F 12.6 °F 68% 30.32 in 10.0 mi NW 6.9 mph - N/A   Clear
4:15 AM 21.2 °F 11.7 °F 12.0 °F 68% 30.33 in 10.0 mi NNW 8.1 mph - N/A   Clear
4:35 AM 21.0 °F 11.4 °F 11.8 °F 68% 30.33 in 10.0 mi NNW 8.1 mph - N/A   Clear
4:55 AM 20.7 °F 11.0 °F 11.8 °F 69% 30.33 in 10.0 mi NNW 8.1 mph - N/A   Clear
5:15 AM 20.7 °F 10.2 °F 11.3 °F 67% 30.34 in 10.0 mi North 9.2 mph - N/A   Clear
5:35 AM 20.1 °F 11.3 °F 11.5 °F 69% 30.34 in 10.0 mi North 6.9 mph - N/A   Clear
5:55 AM 19.6 °F 10.6 °F 12.2 °F 73% 30.36 in 10.0 mi North 6.9 mph - N/A   Clear
6:15 AM 19.4 °F 8.6 °F 11.3 °F 71% 30.37 in 10.0 mi NW 9.2 mph - N/A   Clear
6:35 AM 19.0 °F 11.1 °F 11.3 °F 72% 30.37 in 10.0 mi NNW 5.8 mph - N/A   Clear
6:55 AM 19.2 °F 10.2 °F 11.3 °F 71% 30.37 in 10.0 mi North 6.9 mph - N/A   Clear
7:15 AM 19.9 °F 11.1 °F 11.3 °F 69% 30.38 in 10.0 mi NNW 6.9 mph - N/A   Clear
7:35 AM 21.2 °F 13.6 °F 11.7 °F 67% 30.39 in 10.0 mi NNW 5.8 mph - N/A   Clear
7:55 AM 22.5 °F 12.4 °F 12.2 °F 65% 30.42 in 10.0 mi NNW 9.2 mph - N/A   Clear
8:15 AM 24.8 °F 13.4 °F 11.8 °F 58% 30.42 in 10.0 mi NW 12.7 mph - N/A   Clear
8:35 AM 27.5 °F 16.8 °F 11.1 °F 50% 30.43 in 10.0 mi North 12.7 mph 18.4 mph N/A   Clear
8:55 AM 30.0 °F 19.1 °F 10.4 °F 44% 30.43 in 10.0 mi North 15.0 mph - N/A   Clear
9:15 AM 30.2 °F 20.8 °F 11.3 °F 45% 30.44 in 10.0 mi North 11.5 mph - N/A   Clear
9:35 AM 32.4 °F 22.1 °F 10.6 °F 40% 30.45 in 10.0 mi North 15.0 mph - N/A   Clear
9:55 AM 34.9 °F 28.3 °F 10.8 °F 37% 30.44 in 10.0 mi North 8.1 mph 20.7 mph N/A   Scattered Clouds
10:15 AM - - - N/A% - - North - - N/A   Unknown
10:35 AM 35.4 °F 26.4 °F 6.8 °F 30% 30.43 in 10.0 mi North 13.8 mph 18.4 mph 0.03 in   Clear
10:55 AM 36.0 °F 26.7 °F 6.8 °F 30% 30.43 in 10.0 mi North 15.0 mph 19.6 mph 0.03 in   Clear
11:15 AM 37.6 °F 29.1 °F 6.1 °F 27% 30.43 in 10.0 mi North 13.8 mph 18.4 mph N/A   Clear
11:35 AM 39.4 °F 32.3 °F 6.1 °F 25% 30.42 in 10.0 mi North 11.5 mph - N/A   Clear
11:55 AM 40.5 °F 33.2 °F 7.2 °F 25% 30.41 in 10.0 mi North 12.7 mph 17.3 mph N/A   Clear
12:15 PM 41.0 °F 33.5 °F 7.5 °F 25% 30.41 in 10.0 mi North 13.8 mph 18.4 mph N/A   Clear
12:35 PM 41.5 °F 34.2 °F 8.1 °F 25% 30.39 in 10.0 mi North 13.8 mph - N/A   Clear
12:55 PM 42.1 °F 35.2 °F 8.2 °F 25% 30.39 in 10.0 mi North 12.7 mph - N/A   Clear
1:15 PM 42.8 °F 36.2 °F 8.6 °F 25% 30.39 in 10.0 mi North 12.7 mph - N/A   Clear
1:35 PM 43.2 °F 37.4 °F 9.9 °F 26% 30.39 in 10.0 mi North 10.4 mph - N/A   Clear
1:55 PM 44.6 °F 38.1 °F 10.2 °F 25% 30.39 in 10.0 mi North 13.8 mph - N/A   Clear
2:15 PM 44.1 °F 38.6 °F 9.5 °F 24% 30.39 in 10.0 mi North 10.4 mph 21.9 mph N/A   Clear
2:35 PM 44.6 °F 38.1 °F 9.7 °F 24% 30.39 in 10.0 mi North 13.8 mph - N/A   Clear
2:55 PM 44.1 °F 38.1 °F 9.5 °F 24% 30.39 in 10.0 mi North 11.5 mph - N/A   Clear
3:15 PM 44.4 °F 38.6 °F 9.9 °F 25% 30.39 in 10.0 mi North 11.5 mph - N/A   Clear
3:35 PM 44.2 °F 38.4 °F 10.0 °F 25% 30.39 in 10.0 mi North 11.5 mph - N/A   Clear
3:55 PM 43.9 °F 37.5 °F 9.7 °F 25% 30.40 in 10.0 mi North 12.7 mph - N/A   Clear
4:15 PM 43.0 °F 37.2 °F 9.5 °F 25% 30.40 in 10.0 mi North 10.4 mph - N/A   Clear
4:35 PM 41.9 °F 35.9 °F 9.5 °F 27% 30.41 in 10.0 mi North 10.4 mph - N/A   Clear
4:55 PM 39.6 °F 34.7 °F 10.6 °F 30% 30.42 in 10.0 mi North 6.9 mph - N/A   Clear
5:15 PM 36.7 °F 31.2 °F 10.8 °F 34% 30.42 in 10.0 mi NNW 6.9 mph - N/A   Clear
5:35 PM 36.0 °F 30.3 °F 10.4 °F 35% 30.43 in 10.0 mi NNW 6.9 mph - N/A   Clear
5:55 PM 35.2 °F 29.5 °F 10.8 °F 36% 30.43 in 10.0 mi NNW 6.9 mph - N/A   Clear
6:15 PM 34.3 °F 28.4 °F 10.9 °F 38% 30.43 in 10.0 mi NNW 6.9 mph - N/A   Clear
6:35 PM 33.3 °F 28.9 °F 10.9 °F 40% 30.44 in 10.0 mi NNW 4.6 mph - N/A   Clear
6:55 PM 31.5 °F 26.8 °F 11.1 °F 43% 30.44 in 10.0 mi North 4.6 mph - N/A   Clear
7:15 PM 30.7 °F 27.3 °F 11.3 °F 44% 30.45 in 10.0 mi North 3.5 mph - N/A   Clear
7:35 PM 30.0 °F 26.5 °F 11.3 °F 46% 30.45 in 10.0 mi North 3.5 mph - N/A   Clear
7:55 PM 28.9 °F 22.8 °F 11.8 °F 49% 30.45 in 10.0 mi NNW 5.8 mph - N/A   Clear
8:15 PM 28.4 °F 24.6 °F 11.7 °F 50% 30.45 in 10.0 mi NW 3.5 mph - N/A   Clear
8:35 PM 27.3 °F 23.4 °F 11.3 °F 51% 30.45 in 10.0 mi NW 3.5 mph - N/A   Clear
8:55 PM 25.9 °F - 11.3 °F 54% 30.45 in 10.0 mi Calm Calm - N/A   Clear
9:15 PM 28.4 °F 23.3 °F 11.7 °F 50% 30.46 in 10.0 mi NNW 4.6 mph - N/A   Clear
9:35 PM 28.4 °F 21.2 °F 11.7 °F 50% 30.46 in 10.0 mi NW 6.9 mph - N/A   Clear
9:55 PM 25.7 °F 20.1 °F 12.0 °F 56% 30.47 in 10.0 mi NW 4.6 mph - N/A   Clear
10:15 PM 26.6 °F 19.1 °F 11.8 °F 54% 30.47 in 10.0 mi NNW 6.9 mph - N/A   Clear
10:35 PM 28.0 °F 20.0 °F 12.0 °F 51% 30.48 in 10.0 mi NW 8.1 mph - N/A   Clear
10:55 PM 28.0 °F 19.3 °F 12.6 °F 52% 30.48 in 10.0 mi NW 9.2 mph - N/A   Clear
11:15 PM 28.4 °F 20.4 °F 11.7 °F 50% 30.47 in 10.0 mi North 8.1 mph - N/A   Clear
11:35 PM 27.5 °F 20.2 °F 11.3 °F 51% 30.47 in 10.0 mi NNW 6.9 mph - N/A   Clear
11:55 PM 26.4 °F 19.8 °F 11.3 °F 53% 30.47 in 10.0 mi North 5.8 mph - N/A   Clear